Tracking 29892 objects as of 21-Nov-2024
HD Live streaming from Space Station
objects crossing your sky now

COSMOS 803

Track COSMOS 803 now!
10-day predictions
COSMOS 803 is classified as:


NORAD ID: 8688
Int'l Code: 1976-014A
Perigee: 419.1 km
Apogee: 430.1 km
Inclination: 65.8 °
Period: 92.9 minutes
Semi major axis: 6795 km
RCS: 1.3519 m2 (large)
Launch date: February 12, 1976
Source: Commonwealth of Independent States (former USSR) (CIS)
Launch site: PLESETSK MISSILE AND SPACE COMPLEX (PKMTR)
Your satellite tracking list
Your tracking list is empty




NASA's NSSDC Master Catalog

Two Line Element Set (TLE):
1  8688U 76014A   24325.79039756  .00012154  00000-0  22152-3 0  9998
2  8688  65.8417  73.8188 0008048 345.1574  14.9340 15.49744211702049
Source of the keplerian elements: AFSPC